Time,TemperatureF,DewpointF,PressureIn,WindDirection,WindDirectionDegrees,WindSpeedMPH,WindSpeedGustMPH,Humidity,HourlyPrecipIn,Conditions,Clouds,dailyrainin,SoftwareType,DateUTC
2013-05-23 00:03:00,80.0,74.0,26.42,SW,233,8.0,13.0,83,0.00,,,0.00,,2013-05-23 04:03:00,
2013-05-23 00:12:00,80.0,74.0,26.42,SW,233,8.0,13.0,83,0.00,,,0.00,,2013-05-23 04:12:00,
2013-05-23 00:22:00,80.0,74.0,26.42,SW,235,4.0,8.0,82,0.00,,,0.00,,2013-05-23 04:22:00,
2013-05-23 00:33:00,81.0,76.0,26.42,SW,233,5.0,7.0,84,0.00,,,0.00,,2013-05-23 04:33:00,
2013-05-23 00:43:00,81.0,76.0,26.42,SW,233,5.0,7.0,84,0.00,,,0.00,,2013-05-23 04:43:00,
2013-05-23 00:52:00,80.0,75.0,31.57,SSW,213,7.0,14.0,84,0.00,,,0.00,,2013-05-23 04:52:00,
2013-05-23 01:02:00,80.0,75.0,31.57,SSW,209,8.0,12.0,84,0.00,,,0.00,,2013-05-23 05:02:00,
2013-05-23 01:11:00,80.0,75.0,31.57,SSW,209,8.0,12.0,84,0.00,,,0.00,,2013-05-23 05:11:00,
2013-05-23 01:22:00,79.0,74.0,31.57,SW,236,7.0,13.0,84,0.04,,,0.04,,2013-05-23 05:22:00,
2013-05-23 01:32:00,79.0,74.0,31.57,WSW,239,7.0,11.0,85,0.04,,,0.04,,2013-05-23 05:32:00,
2013-05-23 01:42:00,79.0,75.0,31.57,SW,229,7.0,13.0,88,0.04,,,0.04,,2013-05-23 05:42:00,
2013-05-23 01:52:00,79.0,75.0,31.57,SW,229,7.0,13.0,88,0.04,,,0.04,,2013-05-23 05:52:00,
2013-05-23 02:02:00,79.0,75.0,31.57,WSW,253,8.0,11.0,87,0.04,,,0.04,,2013-05-23 06:02:00,
2013-05-23 02:12:00,79.0,74.0,26.41,WSW,241,5.0,11.0,86,0.00,,,0.04,,2013-05-23 06:12:00,
2013-05-23 02:21:00,79.0,74.0,26.41,WSW,241,5.0,11.0,86,0.00,,,0.04,,2013-05-23 06:21:00,
2013-05-23 02:32:00,79.0,75.0,26.41,WSW,242,5.0,10.0,87,0.00,,,0.04,,2013-05-23 06:32:00,
2013-05-23 02:42:00,79.0,75.0,26.41,WSW,242,5.0,10.0,87,0.00,,,0.04,,2013-05-23 06:42:00,
2013-05-23 02:52:00,79.0,75.0,26.41,West,259,8.0,12.0,87,0.00,,,0.04,,2013-05-23 06:52:00,
2013-05-23 03:02:00,79.0,74.0,26.41,WSW,243,7.0,11.0,86,0.00,,,0.04,,2013-05-23 07:02:00,
2013-05-23 03:11:00,79.0,74.0,26.41,WSW,243,7.0,11.0,86,0.00,,,0.04,,2013-05-23 07:11:00,
2013-05-23 03:21:00,79.0,74.0,26.41,WSW,252,8.0,14.0,85,0.00,,,0.04,,2013-05-23 07:21:00,
2013-05-23 03:32:00,79.0,74.0,26.41,WSW,237,10.0,14.0,85,0.00,,,0.04,,2013-05-23 07:32:00,
2013-05-23 03:42:00,79.0,74.0,26.41,WSW,246,6.0,12.0,85,0.00,,,0.04,,2013-05-23 07:42:00,
2013-05-23 03:59:00,79.0,74.0,26.41,WSW,246,6.0,12.0,85,0.00,,,0.04,,2013-05-23 07:59:00,
2013-05-23 04:11:00,79.0,74.0,26.41,WSW,244,7.0,13.0,85,0.00,,,0.04,,2013-05-23 08:11:00,
2013-05-23 04:22:00,79.0,73.0,26.41,WSW,255,9.0,13.0,83,0.00,,,0.04,,2013-05-23 08:22:00,
2013-05-23 04:32:00,80.0,75.0,26.41,WSW,249,9.0,14.0,84,0.00,,,0.04,,2013-05-23 08:32:00,
2013-05-23 04:42:00,80.0,75.0,26.41,WSW,249,9.0,14.0,84,0.00,,,0.04,,2013-05-23 08:42:00,
2013-05-23 04:52:00,80.0,75.0,26.41,West,281,10.0,13.0,84,0.00,,,0.04,,2013-05-23 08:52:00,
2013-05-23 05:02:00,80.0,75.0,30.34,West,268,11.0,15.0,84,0.00,,,0.04,,2013-05-23 09:02:00,
2013-05-23 05:11:00,80.0,75.0,30.34,West,268,11.0,15.0,84,0.00,,,0.04,,2013-05-23 09:11:00,
2013-05-23 05:22:00,79.0,73.0,29.93,West,279,11.0,15.0,83,0.00,,,0.04,,2013-05-23 09:22:00,
2013-05-23 05:33:00,79.0,74.0,29.93,WNW,290,14.0,17.0,84,0.00,,,0.04,,2013-05-23 09:33:00,
2013-05-23 05:42:00,79.0,74.0,29.93,WNW,290,14.0,17.0,84,0.00,,,0.04,,2013-05-23 09:42:00,
2013-05-23 05:53:00,79.0,74.0,29.94,WNW,283,13.0,18.0,85,0.00,,,0.04,,2013-05-23 09:53:00,
2013-05-23 06:03:00,79.0,74.0,29.94,WNW,284,11.0,17.0,86,0.00,,,0.04,,2013-05-23 10:03:00,
2013-05-23 06:13:00,79.0,74.0,29.94,WNW,284,11.0,17.0,86,0.00,,,0.04,,2013-05-23 10:13:00,
2013-05-23 06:22:00,79.0,76.0,28.56,West,275,11.0,14.0,90,0.00,,,0.04,,2013-05-23 10:22:00,
2013-05-23 06:32:00,80.0,75.0,29.95,West,265,12.0,17.0,86,0.00,,,0.04,,2013-05-23 10:32:00,
2013-05-23 06:42:00,80.0,75.0,29.95,West,265,12.0,17.0,86,0.00,,,0.04,,2013-05-23 10:42:00,
2013-05-23 06:52:00,79.0,74.0,29.95,West,269,9.0,17.0,85,0.00,,,0.04,,2013-05-23 10:52:00,
2013-05-23 07:02:00,79.0,74.0,29.95,West,265,10.0,15.0,85,0.00,,,0.04,,2013-05-23 11:02:00,
2013-05-23 07:11:00,79.0,74.0,29.95,West,265,10.0,15.0,85,0.00,,,0.04,,2013-05-23 11:11:00,
2013-05-23 07:22:00,79.0,74.0,29.95,WNW,283,10.0,16.0,85,0.00,,,0.04,,2013-05-23 11:22:00,
2013-05-23 07:32:00,79.0,74.0,29.95,WNW,289,9.0,14.0,85,0.00,,,0.04,,2013-05-23 11:32:00,
2013-05-23 07:42:00,79.0,74.0,29.95,WNW,289,9.0,14.0,85,0.00,,,0.04,,2013-05-23 11:42:00,
2013-05-23 07:52:00,80.0,75.0,29.94,West,267,12.0,15.0,85,0.00,,,0.04,,2013-05-23 11:52:00,
2013-05-23 08:01:00,80.0,75.0,25.93,West,263,10.0,15.0,85,0.00,,,0.04,,2013-05-23 12:01:00,
2013-05-23 08:12:00,80.0,75.0,25.93,West,263,10.0,15.0,85,0.00,,,0.04,,2013-05-23 12:12:00,
2013-05-23 08:21:00,81.0,75.0,25.93,WNW,289,10.0,13.0,83,0.00,,,0.04,,2013-05-23 12:21:00,
2013-05-23 08:32:00,81.0,74.0,25.93,WNW,302,8.0,13.0,79,0.00,,,0.04,,2013-05-23 12:32:00,
2013-05-23 08:42:00,81.0,74.0,25.93,WNW,302,8.0,13.0,79,0.00,,,0.04,,2013-05-23 12:42:00,
2013-05-23 08:52:00,82.0,74.0,25.93,WNW,298,10.0,13.0,76,0.00,,,0.04,,2013-05-23 12:52:00,
2013-05-23 09:01:00,82.0,74.0,25.93,NW,319,8.0,12.0,76,0.00,,,0.04,,2013-05-23 13:01:00,
2013-05-23 09:11:00,82.0,74.0,25.93,NW,319,8.0,12.0,76,0.00,,,0.04,,2013-05-23 13:11:00,
2013-05-23 09:22:00,83.0,74.0,25.93,WNW,286,10.0,15.0,74,0.00,,,0.04,,2013-05-23 13:22:00,
2013-05-23 09:32:00,83.0,73.0,25.93,NW,318,8.0,12.0,71,0.00,,,0.04,,2013-05-23 13:32:00,
2013-05-23 09:42:00,83.0,73.0,25.93,NW,318,8.0,12.0,71,0.00,,,0.04,,2013-05-23 13:42:00,
2013-05-23 09:52:00,84.0,73.0,26.45,NW,317,6.0,13.0,70,0.00,,,0.04,,2013-05-23 13:52:00,
2013-05-23 10:02:00,84.0,73.0,26.45,WNW,302,7.0,12.0,70,0.00,,,0.04,,2013-05-23 14:02:00,
2013-05-23 10:11:00,84.0,73.0,26.45,WNW,302,7.0,12.0,70,0.00,,,0.04,,2013-05-23 14:11:00,
2013-05-23 10:21:00,84.0,72.0,26.45,NW,312,4.0,10.0,68,0.00,,,0.04,,2013-05-23 14:21:00,
2013-05-23 10:32:00,84.0,72.0,26.45,NW,315,6.0,11.0,68,0.00,,,0.04,,2013-05-23 14:32:00,
2013-05-23 10:42:00,84.0,72.0,26.45,NW,315,6.0,11.0,68,0.00,,,0.04,,2013-05-23 14:42:00,
2013-05-23 10:52:00,85.0,73.0,26.85,NW,312,7.0,10.0,67,0.00,,,0.04,,2013-05-23 14:52:00,
2013-05-23 11:01:00,85.0,72.0,26.85,NW,320,6.0,11.0,66,0.00,,,0.04,,2013-05-23 15:01:00,
2013-05-23 11:11:00,85.0,72.0,26.85,NW,320,6.0,11.0,66,0.00,,,0.04,,2013-05-23 15:11:00,
2013-05-23 11:22:00,85.0,73.0,28.59,NNW,329,6.0,11.0,68,0.00,,,0.04,,2013-05-23 15:22:00,
2013-05-23 11:33:00,85.0,72.0,28.59,NW,317,7.0,11.0,66,0.00,,,0.04,,2013-05-23 15:33:00,
2013-05-23 11:42:00,85.0,72.0,28.59,NW,317,7.0,11.0,66,0.00,,,0.04,,2013-05-23 15:42:00,
2013-05-23 11:53:00,85.0,73.0,28.59,NW,321,8.0,13.0,67,0.00,,,0.04,,2013-05-23 15:53:00,
2013-05-23 12:03:00,85.0,73.0,26.41,NW,317,8.0,11.0,68,0.00,,,0.04,,2013-05-23 16:03:00,
2013-05-23 12:12:00,85.0,73.0,26.41,NW,317,8.0,11.0,68,0.00,,,0.04,,2013-05-23 16:12:00,
2013-05-23 12:23:00,85.0,72.0,30.03,NNW,327,5.0,13.0,66,0.00,,,0.04,,2013-05-23 16:23:00,
2013-05-23 12:33:00,85.0,74.0,26.41,NW,308,5.0,11.0,69,0.00,,,0.04,,2013-05-23 16:33:00,
2013-05-23 12:42:00,85.0,74.0,26.41,NW,308,5.0,11.0,69,0.00,,,0.04,,2013-05-23 16:42:00,
2013-05-23 12:52:00,85.0,73.0,26.43,NW,324,5.0,12.0,68,0.00,,,0.04,,2013-05-23 16:52:00,
2013-05-23 13:03:00,85.0,74.0,26.43,NW,323,6.0,10.0,69,0.00,,,0.04,,2013-05-23 17:03:00,
2013-05-23 13:11:00,85.0,74.0,26.43,NW,323,6.0,10.0,69,0.00,,,0.04,,2013-05-23 17:11:00,
2013-05-23 13:23:00,85.0,74.0,26.42,North,356,7.0,10.0,70,0.00,,,0.04,,2013-05-23 17:23:00,
2013-05-23 13:33:00,85.0,75.0,26.41,NNW,340,5.0,12.0,72,0.00,,,0.04,,2013-05-23 17:33:00,
2013-05-23 13:43:00,85.0,75.0,26.41,NNW,340,5.0,12.0,72,0.00,,,0.04,,2013-05-23 17:43:00,
2013-05-23 13:53:00,85.0,75.0,26.41,North,358,11.0,16.0,71,0.00,,,0.04,,2013-05-23 17:53:00,
2013-05-23 14:01:00,85.0,75.0,26.41,North,350,12.0,14.0,71,0.00,,,0.04,,2013-05-23 18:01:00,
2013-05-23 14:11:00,85.0,75.0,26.41,North,350,12.0,14.0,71,0.00,,,0.04,,2013-05-23 18:11:00,
2013-05-23 14:22:00,85.0,75.0,26.41,North,354,9.0,15.0,71,0.00,,,0.04,,2013-05-23 18:22:00,
2013-05-23 14:32:00,85.0,74.0,26.43,North,6,7.0,15.0,70,0.00,,,0.04,,2013-05-23 18:32:00,
2013-05-23 14:42:00,85.0,74.0,26.43,North,6,7.0,15.0,70,0.00,,,0.04,,2013-05-23 18:42:00,
2013-05-23 14:52:00,86.0,75.0,26.41,North,359,9.0,16.0,69,0.00,,,0.04,,2013-05-23 18:52:00,
2013-05-23 15:01:00,86.0,74.0,26.41,North,2,5.0,15.0,68,0.00,,,0.04,,2013-05-23 19:01:00,
2013-05-23 15:11:00,86.0,74.0,26.41,North,2,5.0,15.0,68,0.00,,,0.04,,2013-05-23 19:11:00,
2013-05-23 15:21:00,86.0,74.0,26.41,North,360,5.0,12.0,67,0.00,,,0.04,,2013-05-23 19:21:00,
2013-05-23 15:32:00,86.0,74.0,26.41,North,360,8.0,15.0,68,0.00,,,0.04,,2013-05-23 19:32:00,
2013-05-23 15:42:00,86.0,74.0,26.41,North,2,5.0,13.0,68,0.00,,,0.04,,2013-05-23 19:42:00,
2013-05-23 15:52:00,86.0,74.0,26.41,North,2,5.0,13.0,68,0.00,,,0.04,,2013-05-23 19:52:00,
2013-05-23 16:02:00,86.0,74.0,26.41,North,3,4.0,10.0,68,0.00,,,0.04,,2013-05-23 20:02:00,
2013-05-23 16:11:00,86.0,74.0,26.41,North,3,4.0,10.0,68,0.00,,,0.04,,2013-05-23 20:11:00,
2013-05-23 16:21:00,86.0,74.0,29.96,North,359,6.0,12.0,68,0.00,,,0.04,,2013-05-23 20:21:00,
2013-05-23 16:32:00,86.0,75.0,29.96,North,354,4.0,11.0,69,0.00,,,0.04,,2013-05-23 20:32:00,
2013-05-23 16:42:00,86.0,75.0,29.96,North,354,4.0,11.0,69,0.00,,,0.04,,2013-05-23 20:42:00,
2013-05-23 16:52:00,86.0,74.0,27.58,North,356,8.0,13.0,67,0.00,,,0.04,,2013-05-23 20:52:00,
2013-05-23 17:01:00,85.0,74.0,27.58,North,354,6.0,13.0,69,0.00,,,0.04,,2013-05-23 21:01:00,
2013-05-23 17:11:00,85.0,74.0,27.58,North,354,6.0,13.0,69,0.00,,,0.04,,2013-05-23 21:11:00,
2013-05-23 17:22:00,85.0,74.0,27.55,North,353,8.0,12.0,69,0.00,,,0.04,,2013-05-23 21:22:00,
2013-05-23 17:32:00,85.0,74.0,27.55,NNW,347,8.0,14.0,69,0.00,,,0.04,,2013-05-23 21:32:00,
2013-05-23 17:43:00,85.0,74.0,27.55,NNW,347,8.0,14.0,69,0.00,,,0.04,,2013-05-23 21:43:00,
2013-05-23 17:51:00,85.0,73.0,27.55,NW,325,5.0,12.0,67,0.00,,,0.04,,2013-05-23 21:51:00,
2013-05-23 17:53:00,85.0,74.0,27.55,North,356,7.0,13.0,69,0.00,,,0.04,,2013-05-23 21:53:00,
2013-05-23 18:03:00,85.0,74.0,27.55,North,357,5.0,13.0,69,0.00,,,0.04,,2013-05-23 22:03:00,
2013-05-23 18:12:00,85.0,74.0,27.55,North,357,5.0,13.0,69,0.00,,,0.04,,2013-05-23 22:12:00,
2013-05-23 18:22:00,85.0,73.0,27.55,NW,325,5.0,12.0,67,0.00,,,0.04,,2013-05-23 22:22:00,
2013-05-23 18:33:00,85.0,73.0,27.55,NW,325,5.0,12.0,67,0.00,,,0.04,,2013-05-23 22:33:00,
2013-05-23 18:42:00,85.0,73.0,27.55,NW,325,5.0,12.0,67,0.00,,,0.04,,2013-05-23 22:42:00,